AFRICASAT-2 (MEASAT-2)

Last updated on Wed Sep 26 2018 02:48:21 GMT+0000 (Coordinated Universal Time)

1 24653U 96063B 18267.68754111 -.00000184 00000-0 00000-0 0 9995 2 24653 8.1576 46.5090 0003311 162.8343 32.0451 0.99661214 80043
UTC large
Height (km)
Speed (km/s)
/
Latitude / Longitude
Inclination (degrees)
Orbital Period (minutes)
Azimuth
Elevation
Range (km)
Doppler Factor

Next 0 passes for location: London (51.5072 / 0.1276)

Sorry there are no passes over London.
AFRICASAT-2 (MEASAT-2)